Regional Weather Roundup
Issued by NWS

Current Version | Previous Version | Text Only | Print | Product List | Glossary On
Versions: 1 2 3 4 5 6 7 8 9 10 11 12 13 14 15 16 17 18 19 20 21 22 23 24 25 26 27 28 29 30 31 32 33 34 35 36 37 38 39 40 41 42 43 44 45 46 47 48 49 50
000
ASUS44 KLIX 250910
RWRLA
LOUISIANA WEATHER ROUNDUP
NATIONAL WEATHER SERVICE NEW ORLEANS LA
400 AM CDT SAT OCT 25 2014

NOTE: "FAIR" INDICATES FEW OR NO CLOUDS BELOW 12,000 FEET WITH NO
      SIGNIFICANT WEATHER AND/OR OBSTRUCTIONS TO VISIBILITY.
      SKY/WX - SKY CONDITION AND SIGNIFICANT WEATHER.
      TMP - AIR TEMPERATURE.    DP   - DEWPOINT TEMPERATURE.
      RH  - RELATIVE HUMIDITY.  PRES - PRESSURE.
      HX  - HEAT INDEX.         WCI  - WIND CHILL INDEX.

*  THESE STATIONS ARE NOT NWS OR FAA STATIONS AND ARE NOT UNDER
   NWS QUALITY CONTROL.

LAZ040-048-061>063-065-066-069-251000-
SOUTHEAST LOUISIANA

CITY           SKY/WX    TMP DP  RH WIND       PRES   REMARKS
N.O. AUDUBON     N/A     61  55  81 MISG        N/A
N.O. INTL ARPT CLEAR     61  52  72 N10       30.09S
N.O. LAKEFRONT CLEAR     67  53  61 NE16      30.09S
N.O. DOWNTOWN* FAIR      64  48  55 N6        30.09S
SLIDELL        CLEAR     46  44  93 N3        30.08F
BATON ROUGE    CLEAR     48  45  89 CALM      30.11S
BOOTHVILLE     CLEAR     68  57  68 N8        30.07S
BELLE CHASSE   CLEAR     50  47  89 CALM      30.08F
BOGALUSA*        N/A     46  43  90 CALM      30.12S
NEW ROADS*     FAIR      47  46  97 CALM      30.11F
GONZALES*      FAIR      49  49 100 CALM      30.11R
HAMMOND*       CLEAR     46  45  93 NW3       30.12S
HOUMA*         CLEAR     54  51  89 N3        30.09S
PORT FOURCHON* SUNNY     66  57  72 N7        30.11S

$$

LAZ041-044-053-054-251000-
SOUTHWEST LOUISIANA

CITY           SKY/WX    TMP DP  RH WIND       PRES   REMARKS
LAKE CHARLES   CLEAR     52  50  93 CALM      30.12F
LAFAYETTE      CLEAR     54  49  83 CALM      30.12R
PATTERSON      CLEAR     54  52  94 CALM      30.12S
SALT POINT       N/A     57  52  83 CALM      30.10S
NEW IBERIA     CLEAR     51  48  89 NW3       30.12S
CHENAULT AIRPK CLEAR     52  51  96 CALM      30.12S

$$

LAZ027-028-251000-
CENTRAL LOUISIANA

CITY           SKY/WX    TMP DP  RH WIND       PRES   REMARKS
FORT POLK      CLEAR     50  48  95 NW2       30.12S
ALEXANDRIA INT PTCLDY    48  48 100 CALM      30.12R FOG
ALEXANDRIA     CLEAR     44  44 100 CALM      30.13R FOG

$$

LAZ001-002-251000-
NORTHWEST LOUISIANA

CITY           SKY/WX    TMP DP  RH WIND       PRES   REMARKS
SHREVEPORT     CLEAR     54  52  93 CALM      30.12S
BARKSDALE AFB  CLEAR     52  51  97 SE2       30.12F
DTN SHREVEPORT CLEAR     54  52  93 CALM      30.12F

$$

LAZ014-016-251000-
NORTHEAST LOUISIANA

CITY           SKY/WX    TMP DP  RH WIND       PRES   REMARKS
MONROE         CLEAR     50  48  93 CALM      30.14R FOG
TALLULAH       CLEAR     45  43  93 CALM      30.11F

$$




USA.gov is the U.S. government's official web portal to all federal, state and local government web resources and services.